Vancouver, WA
on Thursday, January 10, 2013

Thursday
Previous Day Next Day
Daily Summary
 ActualAverageRecord
Temperature
Mean Temperature °F 41°F  
Max Temperature 40°F 47°F 59°F (1945)
Min Temperature 32°F 35°F 9°F (1909)
Degree Days
Heating Degree Days 29    
Month to date heating degree days 268  
Since 1 July heating degree days 1816  
Cooling Degree Days 0    
Month to date cooling degree days 0  
Year to date cooling degree days 0  
Moisture
Dew Point 33°F   
Average Humidity 90    
Maximum Humidity 100    
Minimum Humidity 79    
Precipitation
Precipitation 0.20 in 0.19 in 1.25 in (1965)
Month to date precipitation 0.92 2.00  
Year to date precipitation 0.92 2.00  
Snow
Snow 0.00 in in in ()
Month to date snowfall 0.0  
Snow Depth 0.00 in   
Wind
Wind Speed 1 mph   
Max Wind Speed 8 mph   
Max Gust Speed 9 mph   
Visibility 9 miles   
Events Rain   

Key: T is trace of precipitation, MM is missing value
Source: NWS Daily Summary
Time(PST)TemperatureDew PointHumidity Pressure Visibility Wind DirectionWind SpeedGust SpeedPrecipitationEvents Conditions
12:53 AM 32.0°F 30.9°F 96% 30.00 in 6.0 miles Calm Calm - N/A   Mostly Cloudy
1:23 AM 33.8°F 30.2°F 87% 30.00 in 7.0 miles Calm Calm - 0.00 in Rain Light Rain
1:53 AM 35.1°F 32.0°F 89% 30.01 in 9.0 miles East 3.5 mph - 0.00 in   Mostly Cloudy
2:08 AM 35.6°F 33.8°F 93% 30.01 in 9.0 miles Calm Calm - N/A   Mostly Cloudy
2:35 AM 35.6°F 33.8°F 93% 30.02 in 10.0 miles Calm Calm - N/A   Mostly Cloudy
2:53 AM 36.0°F 33.1°F 89% 30.02 in 10.0 miles Calm Calm - N/A   Overcast
3:39 AM 35.6°F 33.8°F 93% 30.02 in 10.0 miles Calm Calm - N/A   Overcast
3:53 AM 36.0°F 33.1°F 89% 30.02 in 10.0 miles Calm Calm - N/A   Overcast
4:53 AM 36.0°F 33.1°F 89% 30.02 in 10.0 miles SSE 3.5 mph - N/A   Overcast
5:53 AM 36.0°F 33.1°F 89% 30.02 in 10.0 miles SE 3.5 mph - N/A   Overcast
6:53 AM 37.0°F 33.1°F 86% 30.04 in 10.0 miles SSE 3.5 mph - 0.01 in Rain Light Rain
7:39 AM 35.6°F 33.8°F 93% 30.05 in 8.0 miles Calm Calm - 0.03 in Rain Light Rain
7:53 AM 36.0°F 33.1°F 89% 30.06 in 7.0 miles South 3.5 mph - 0.05 in Rain Light Rain
8:08 AM 35.6°F 32.0°F 87% 30.06 in 6.0 miles Calm Calm - 0.03 in Rain Rain
8:53 AM 35.1°F 32.0°F 89% 30.08 in 10.0 miles Calm Calm - 0.04 in   Overcast
9:34 AM 35.6°F 33.8°F 93% 30.09 in 10.0 miles Calm Calm - N/A   Overcast
9:48 AM 35.6°F 33.8°F 93% 30.09 in 10.0 miles Calm Calm - N/A   Overcast
9:53 AM 36.0°F 33.1°F 89% 30.09 in 10.0 miles Calm Calm - N/A   Overcast
10:53 AM 37.0°F 34.0°F 89% 30.09 in 9.0 miles Calm Calm - 0.00 in Rain Light Rain
11:53 AM 37.9°F 35.1°F 89% 30.08 in 9.0 miles Calm Calm - 0.00 in   Overcast
12:35 PM 37.4°F 33.8°F 87% 30.07 in 10.0 miles West 4.6 mph - N/A   Overcast
12:53 PM 37.9°F 34.0°F 86% 30.07 in 10.0 miles West 4.6 mph - N/A   Overcast
1:24 PM 37.4°F 33.8°F 87% 30.08 in 10.0 miles Calm Calm - N/A   Overcast
1:53 PM 39.0°F 33.1°F 79% 30.09 in 10.0 miles Calm Calm - N/A   Overcast
2:21 PM 39.2°F 33.8°F 81% 30.09 in 10.0 miles Calm Calm - N/A   Overcast
2:53 PM 39.0°F 34.0°F 82% 30.10 in 10.0 miles Calm Calm - N/A   Overcast
3:53 PM 39.0°F 33.1°F 79% 30.11 in 10.0 miles NW 5.8 mph - N/A   Overcast
4:42 PM 39.2°F 33.8°F 81% 30.10 in 10.0 miles Calm Calm - N/A   Overcast
4:53 PM 39.0°F 34.0°F 82% 30.11 in 10.0 miles Calm Calm - N/A   Overcast
5:53 PM 37.9°F 34.0°F 86% 30.10 in 10.0 miles Calm Calm - 0.00 in   Overcast
6:23 PM 37.4°F 35.6°F 93% 30.10 in 10.0 miles Calm Calm - N/A   Mostly Cloudy
6:53 PM 37.9°F 35.1°F 89% 30.10 in 10.0 miles Calm Calm - N/A   Overcast
7:23 PM 37.4°F 33.8°F 87% 30.10 in 10.0 miles ESE 3.5 mph - N/A   Overcast
8:00 PM 37.4°F 35.6°F 93% 30.10 in 3.0 miles Calm Calm - 0.02 in Rain Rain
8:08 PM 37.4°F 35.6°F 93% 30.11 in 2.5 miles Calm Calm - 0.05 in Rain Rain
8:16 PM 35.6°F 33.8°F 93% 30.10 in 4.0 miles West 3.5 mph - 0.06 in Rain Light Rain
8:40 PM 35.6°F 33.8°F 93% 30.10 in 10.0 miles Calm Calm - 0.07 in   Mostly Cloudy
8:53 PM 35.1°F 33.1°F 92% 30.10 in 10.0 miles Calm Calm - 0.07 in   Mostly Cloudy
9:53 PM 34.0°F 32.0°F 92% 30.11 in 9.0 miles Calm Calm - 0.00 in Rain Light Rain
10:00 PM 35.6°F 33.8°F 93% 30.11 in 9.0 miles Calm Calm - 0.00 in Rain Light Rain
10:31 PM 35.6°F 33.8°F 93% 30.11 in 9.0 miles Calm Calm - 0.00 in   Mostly Cloudy
10:53 PM 34.0°F 32.0°F 92% 30.11 in 5.0 miles Calm Calm - 0.00 in   Mostly Cloudy
11:53 PM 34.0°F 33.1°F 96% 30.12 in 7.0 miles Calm Calm - N/A   Overcast
Moon Phase
Jan. 10 Jan. 11 Jan. 18 Jan. 26 Feb. 03
Sunrise:07:49 AM (PST) Moon Rise:06:34 AM (PST)1/10
Sunset:04:47 PM (PST) Moon Set:04:02 PM (PST)1/10

Copyright © 2014 The Weather Underground, Inc.